| time (UTC) | temp C | wind direction | speed KPH | gust KPH | rain 1hr cm | rain 24hr cm | rain mn cm | humidity % | barometer mb |
| 20260503194047 | 18 | 205 | 3.2 | 4.8 | 0.00 | 0.00 | 0.00 | 39 | 1010.5 |
| 20260503193544 | 18 | 288 | 8.0 | 11.3 | 0.00 | 0.00 | 0.00 | 39 | 1010.1 |
| 20260503193039 | 18 | 263 | 14.5 | 17.7 | 0.00 | 0.00 | 0.00 | 39 | 1010.5 |
| 20260503192536 | 17 | 211 | 4.8 | 4.8 | 0.00 | 0.00 | 0.00 | 38 | 1010.5 |
| 20260503192032 | 17 | 303 | 3.2 | 9.7 | 0.00 | 0.00 | 0.00 | 40 | 1010.5 |
| 20260503191528 | 17 | 251 | 3.2 | 4.8 | 0.00 | 0.00 | 0.00 | 40 | 1010.5 |
| 20260503191025 | 18 | 295 | 6.4 | 16.1 | 0.00 | 0.00 | 0.00 | 39 | 1010.9 |
| 20260503190522 | 18 | 176 | 8.0 | 12.9 | 0.00 | 0.00 | 0.00 | 38 | 1010.9 |
| 20260503190019 | 18 | 286 | 9.7 | 9.7 | 0.00 | 0.00 | 0.00 | 37 | 1010.9 |
| 20260503185515 | 18 | 190 | 4.8 | 6.4 | 0.00 | 0.00 | 0.00 | 38 | 1010.9 |
| 20260503185015 | 18 | 270 | 3.2 | 4.8 | 0.00 | 0.00 | 0.00 | 38 | 1010.9 |
| 20260503184512 | 17 | 218 | 3.2 | 3.2 | 0.00 | 0.00 | 0.00 | 40 | 1010.9 |
| 20260503184008 | 17 | 170 | 8.0 | 14.5 | 0.00 | 0.00 | 0.00 | 38 | 1011.2 |
| 20260503183505 | 17 | 288 | 9.7 | 11.3 | 0.00 | 0.00 | 0.00 | 38 | 1011.2 |
| 20260503183002 | 18 | 190 | 8.0 | 11.3 | 0.00 | 0.00 | 0.00 | 38 | 1011.2 |
| 20260503182500 | 17 | 145 | 8.0 | 12.9 | 0.00 | 0.00 | 0.00 | 41 | 1010.9 |
| 20260503181958 | 17 | 236 | 12.9 | 17.7 | 0.00 | 0.00 | 0.00 | 38 | 1011.6 |
| 20260503181455 | 17 | 297 | 4.8 | 6.4 | 0.00 | 0.00 | 0.00 | 40 | 1011.6 |
| 20260503180950 | 17 | 210 | 4.8 | 9.7 | 0.00 | 0.00 | 0.00 | 40 | 1011.6 |
| 20260503180449 | 16 | 223 | 12.9 | 17.7 | 0.00 | 0.00 | 0.00 | 40 | 1011.6 |
| 20260503175945 | 16 | 280 | 8.0 | 16.1 | 0.00 | 0.00 | 0.00 | 41 | 1011.9 |
| 20260503175443 | 16 | 288 | 11.3 | 16.1 | 0.00 | 0.00 | 0.00 | 40 | 1011.9 |
| 20260503174939 | 17 | 190 | 8.0 | 9.7 | 0.00 | 0.00 | 0.00 | 40 | 1011.9 |
| 20260503174437 | 16 | 176 | 3.2 | 4.8 | 0.00 | 0.00 | 0.00 | 42 | 1012.3 |
| 20260503173932 | 16 | 273 | 6.4 | 12.9 | 0.00 | 0.00 | 0.00 | 43 | 1011.9 |
| 20260503173428 | 16 | 195 | 6.4 | 11.3 | 0.00 | 0.00 | 0.00 | 42 | 1012.3 |
| 20260503172925 | 16 | 290 | 11.3 | 16.1 | 0.00 | 0.00 | 0.00 | 43 | 1012.3 |
| 20260503172423 | 16 | 184 | 1.6 | 3.2 | 0.00 | 0.00 | 0.00 | 43 | 1012.3 |
| 20260503171919 | 16 | 277 | 14.5 | 20.9 | 0.00 | 0.00 | 0.00 | 41 | 1012.3 |
| 20260503171416 | 16 | 208 | 6.4 | 11.3 | 0.00 | 0.00 | 0.00 | 43 | 1012.6 |
| 20260503170913 | 16 | 250 | 6.4 | 11.3 | 0.00 | 0.00 | 0.00 | 42 | 1012.6 |
| 20260503170409 | 16 | 274 | 12.9 | 14.5 | 0.00 | 0.00 | 0.00 | 42 | 1012.6 |
| 20260503150802 | 16 | 327 | 11.3 | 14.5 | 0.00 | 0.00 | 0.00 | 41 | 1013.3 |
| 20260503150257 | 15 | 187 | 4.8 | 6.4 | 0.00 | 0.00 | 0.00 | 42 | 1013.6 |
| 20260503140222 | 12 | 296 | 11.3 | 14.5 | 0.00 | 0.00 | 0.00 | 46 | 1013.6 |
| 20260503131152 | 9 | 233 | 4.8 | 6.4 | 0.00 | 0.00 | 0.00 | 56 | 1013.9 |
| 20260503130649 | 9 | 212 | 4.8 | 6.4 | 0.00 | 0.00 | 0.00 | 57 | 1014.3 |
| 20260503130147 | 8 | 209 | 3.2 | 4.8 | 0.00 | 0.00 | 0.00 | 58 | 1013.9 |
| 20260503120112 | 5 | 199 | 4.8 | 4.8 | 0.00 | 0.00 | 0.00 | 64 | 1014.3 |
| 20260503110539 | 3 | 191 | 0.0 | 0.0 | 0.00 | 0.00 | 0.00 | 71 | 1014.3 |
| 20260503090426 | 1 | 177 | 0.0 | 0.0 | 0.00 | 0.00 | 0.00 | 82 | 1015.3 |
| 20260503081353 | 1 | 176 | 0.0 | 0.0 | 0.00 | 0.00 | 0.00 | 80 | 1015.3 |
| 20260503080849 | 1 | 176 | 0.0 | 0.0 | 0.00 | 0.00 | 0.00 | 80 | 1015.3 |
| 20260503080347 | 1 | 176 | 0.0 | 0.0 | 0.00 | 0.00 | 0.00 | 80 | 1015.0 |
| 20260503072823 | 1 | 176 | 0.0 | 0.0 | 0.00 | 0.00 | 0.00 | 82 | 1015.3 |
| 20260503072320 | 1 | 176 | 0.0 | 0.0 | 0.00 | 0.00 | 0.00 | 82 | 1015.6 |
| 20260503071816 | 1 | 176 | 0.0 | 0.0 | 0.00 | 0.00 | 0.00 | 83 | 1015.3 |
| 20260503071314 | 1 | 176 | 0.0 | 0.0 | 0.00 | 0.00 | 0.00 | 83 | 1015.3 |
| 20260503070810 | 1 | 176 | 0.0 | 0.0 | 0.00 | 0.00 | 0.00 | 83 | 1015.3 |
| 20260503070308 | 1 | 177 | 0.0 | 0.0 | 0.00 | 0.00 | 0.00 | 83 | 1015.3 |
| 20260503060232 | 2 | 177 | 0.0 | 0.0 | 0.00 | 0.00 | 0.00 | 82 | 1016.1 |
| 20260503054719 | 2 | 176 | 0.0 | 0.0 | 0.00 | 0.00 | 0.00 | 83 | 1015.6 |
| 20260503054216 | 2 | 176 | 0.0 | 0.0 | 0.00 | 0.00 | 0.00 | 82 | 1016.1 |
| 20260503053714 | 2 | 177 | 0.0 | 0.0 | 0.00 | 0.00 | 0.00 | 82 | 1016.1 |
| 20260503053213 | 2 | 176 | 0.0 | 0.0 | 0.00 | 0.00 | 0.00 | 83 | 1016.1 |
| 20260503052709 | 2 | 176 | 0.0 | 0.0 | 0.00 | 0.00 | 0.00 | 82 | 1016.1 |
| 20260503052206 | 2 | 177 | 0.0 | 0.0 | 0.00 | 0.00 | 0.00 | 82 | 1016.1 |
| 20260503051700 | 2 | 177 | 0.0 | 0.0 | 0.00 | 0.00 | 0.00 | 82 | 1016.1 |
| 20260503051158 | 2 | 177 | 0.0 | 0.0 | 0.00 | 0.00 | 0.00 | 82 | 1016.1 |
| 20260503050655 | 2 | 177 | 0.0 | 0.0 | 0.00 | 0.00 | 0.00 | 82 | 1016.4 |
| 20260503050152 | 2 | 177 | 0.0 | 0.0 | 0.00 | 0.00 | 0.00 | 82 | 1016.1 |
| 20260503045649 | 2 | 176 | 0.0 | 0.0 | 0.00 | 0.00 | 0.00 | 81 | 1016.4 |
| 20260503045146 | 2 | 176 | 0.0 | 0.0 | 0.00 | 0.00 | 0.00 | 81 | 1016.1 |
| 20260503044643 | 2 | 176 | 0.0 | 0.0 | 0.00 | 0.00 | 0.00 | 79 | 1016.1 |
| 20260503044140 | 2 | 176 | 0.0 | 0.0 | 0.00 | 0.00 | 0.00 | 79 | 1016.1 |
| 20260503043637 | 2 | 176 | 0.0 | 0.0 | 0.00 | 0.00 | 0.00 | 80 | 1016.1 |
| 20260503043134 | 2 | 177 | 0.0 | 0.0 | 0.00 | 0.00 | 0.00 | 80 | 1016.4 |
| 20260503042630 | 2 | 176 | 0.0 | 0.0 | 0.00 | 0.00 | 0.00 | 79 | 1016.4 |
| 20260503042126 | 2 | 176 | 0.0 | 0.0 | 0.00 | 0.00 | 0.00 | 79 | 1016.4 |
| 20260503041623 | 2 | 176 | 0.0 | 0.0 | 0.00 | 0.00 | 0.00 | 80 | 1016.1 |
| 20260503041121 | 2 | 177 | 0.0 | 0.0 | 0.00 | 0.00 | 0.00 | 79 | 1016.4 |
| 20260503040618 | 3 | 176 | 0.0 | 0.0 | 0.00 | 0.00 | 0.00 | 79 | 1016.4 |
| 20260503040115 | 3 | 176 | 0.0 | 0.0 | 0.00 | 0.00 | 0.00 | 79 | 1016.8 |
| 20260503035612 | 3 | 176 | 0.0 | 0.0 | 0.00 | 0.00 | 0.00 | 78 | 1016.4 |
| 20260503035110 | 2 | 176 | 0.0 | 0.0 | 0.00 | 0.00 | 0.00 | 79 | 1016.4 |
| 20260503034607 | 3 | 176 | 0.0 | 0.0 | 0.00 | 0.00 | 0.00 | 80 | 1016.4 |
| 20260503034104 | 3 | 176 | 0.0 | 0.0 | 0.00 | 0.00 | 0.00 | 79 | 1016.8 |
| 20260503033601 | 3 | 176 | 0.0 | 0.0 | 0.00 | 0.00 | 0.00 | 79 | 1016.4 |
| 20260503033059 | 3 | 176 | 0.0 | 0.0 | 0.00 | 0.00 | 0.00 | 79 | 1016.4 |
| 20260503032557 | 3 | 176 | 0.0 | 0.0 | 0.00 | 0.00 | 0.00 | 78 | 1016.8 |
| 20260503032055 | 3 | 176 | 0.0 | 0.0 | 0.00 | 0.00 | 0.00 | 78 | 1016.8 |
| 20260503031552 | 3 | 176 | 0.0 | 0.0 | 0.00 | 0.00 | 0.00 | 79 | 1016.4 |
| 20260503031049 | 3 | 176 | 0.0 | 0.0 | 0.00 | 0.00 | 0.00 | 80 | 1016.4 |
| 20260503030545 | 3 | 177 | 0.0 | 0.0 | 0.00 | 0.00 | 0.00 | 79 | 1016.8 |
| 20260503030043 | 3 | 176 | 0.0 | 0.0 | 0.00 | 0.00 | 0.00 | 77 | 1016.4 |
| 20260503025539 | 3 | 177 | 0.0 | 0.0 | 0.00 | 0.00 | 0.00 | 77 | 1016.4 |
| 20260503025037 | 3 | 177 | 0.0 | 0.0 | 0.00 | 0.00 | 0.00 | 77 | 1016.8 |
| 20260503024533 | 3 | 177 | 0.0 | 0.0 | 0.00 | 0.00 | 0.00 | 76 | 1016.8 |
| 20260503024030 | 3 | 177 | 0.0 | 0.0 | 0.00 | 0.00 | 0.00 | 76 | 1016.4 |
| 20260503023527 | 3 | 177 | 0.0 | 0.0 | 0.00 | 0.00 | 0.00 | 75 | 1016.8 |
| 20260503023025 | 3 | 177 | 0.0 | 0.0 | 0.00 | 0.00 | 0.00 | 73 | 1016.8 |
| 20260503022520 | 3 | 177 | 0.0 | 0.0 | 0.00 | 0.00 | 0.00 | 72 | 1016.4 |
| 20260503022015 | 3 | 177 | 0.0 | 0.0 | 0.00 | 0.00 | 0.00 | 71 | 1016.8 |
| 20260503021512 | 3 | 177 | 0.0 | 0.0 | 0.00 | 0.00 | 0.00 | 71 | 1016.8 |
| 20260503021009 | 3 | 177 | 0.0 | 0.0 | 0.00 | 0.00 | 0.00 | 71 | 1016.8 |
| 20260503020507 | 4 | 177 | 0.0 | 0.0 | 0.00 | 0.00 | 0.00 | 71 | 1016.8 |
| 20260503020003 | 4 | 177 | 0.0 | 0.0 | 0.00 | 0.00 | 0.00 | 70 | 1016.8 |
| 20260503015500 | 4 | 177 | 0.0 | 0.0 | 0.00 | 0.00 | 0.00 | 69 | 1016.8 |
| 20260503014956 | 5 | 177 | 0.0 | 0.0 | 0.00 | 0.00 | 0.00 | 68 | 1016.4 |
| 20260503014453 | 5 | 177 | 0.0 | 0.0 | 0.00 | 0.00 | 0.00 | 68 | 1016.8 |
| 20260503013951 | 5 | 177 | 0.0 | 0.0 | 0.00 | 0.00 | 0.00 | 68 | 1016.8 |
| 20260503013448 | 5 | 177 | 0.0 | 0.0 | 0.00 | 0.00 | 0.00 | 68 | 1016.4 |
| 20260503012945 | 5 | 177 | 0.0 | 0.0 | 0.00 | 0.00 | 0.00 | 66 | 1016.8 |
| 20260503012443 | 5 | 177 | 0.0 | 0.0 | 0.00 | 0.00 | 0.00 | 65 | 1016.4 |
| 20260503011938 | 5 | 177 | 0.0 | 0.0 | 0.00 | 0.00 | 0.00 | 63 | 1016.4 |
| 20260503011436 | 6 | 177 | 0.0 | 0.0 | 0.00 | 0.00 | 0.00 | 61 | 1016.8 |
| 20260503010933 | 6 | 177 | 0.0 | 0.0 | 0.00 | 0.00 | 0.00 | 61 | 1016.4 |
| 20260503010429 | 6 | 177 | 0.0 | 0.0 | 0.00 | 0.00 | 0.00 | 59 | 1016.4 |
| 20260503005927 | 6 | 177 | 0.0 | 0.0 | 0.00 | 0.00 | 0.00 | 60 | 1016.4 |
| 20260503005424 | 6 | 177 | 0.0 | 0.0 | 0.00 | 0.00 | 0.00 | 58 | 1016.4 |
| 20260503004921 | 7 | 177 | 0.0 | 0.0 | 0.00 | 0.00 | 0.00 | 55 | 1016.1 |
| 20260503004417 | 7 | 177 | 0.0 | 0.0 | 0.00 | 0.00 | 0.00 | 53 | 1016.4 |
| 20260503003914 | 8 | 177 | 0.0 | 0.0 | 0.00 | 0.00 | 0.00 | 52 | 1016.4 |
| 20260503003411 | 8 | 182 | 0.0 | 0.0 | 0.00 | 0.00 | 0.00 | 50 | 1016.4 |
| 20260503002909 | 8 | 184 | 1.6 | 1.6 | 0.00 | 0.00 | 0.00 | 49 | 1016.4 |
| 20260503002406 | 8 | 168 | 0.0 | 0.0 | 0.00 | 0.00 | 0.00 | 50 | 1016.4 |
| 20260503001902 | 8 | 200 | 1.6 | 3.2 | 0.00 | 0.00 | 0.00 | 48 | 1016.4 |
| 20260503001358 | 8 | 198 | 1.6 | 1.6 | 0.00 | 0.00 | 0.00 | 47 | 1016.1 |
| 20260503000856 | 8 | 177 | 0.0 | 1.6 | 0.00 | 0.00 | 0.00 | 48 | 1016.1 |
| 20260503000353 | 8 | 178 | 1.6 | 1.6 | 0.00 | 0.00 | 0.00 | 48 | 1016.1 |
| 20260502235850 | 9 | 162 | 0.0 | 0.0 | 0.00 | 0.00 | 0.00 | 48 | 1016.4 |
| 20260502235347 | 9 | 170 | 0.0 | 0.0 | 0.00 | 0.00 | 0.00 | 47 | 1016.4 |
| 20260502234844 | 9 | 202 | 1.6 | 1.6 | 0.00 | 0.00 | 0.00 | 47 | 1016.4 |
| 20260502234341 | 9 | 185 | 0.0 | 1.6 | 0.00 | 0.00 | 0.00 | 46 | 1016.8 |
| 20260502233838 | 9 | 181 | 0.0 | 0.0 | 0.00 | 0.00 | 0.00 | 46 | 1016.4 |
| 20260502233334 | 9 | 222 | 1.6 | 3.2 | 0.00 | 0.00 | 0.00 | 46 | 1016.4 |
| 20260502232831 | 9 | 178 | 1.6 | 1.6 | 0.00 | 0.00 | 0.00 | 47 | 1016.1 |
| 20260502232327 | 9 | 209 | 3.2 | 4.8 | 0.00 | 0.00 | 0.00 | 48 | 1016.4 |
| 20260502231824 | 9 | 247 | 3.2 | 3.2 | 0.00 | 0.00 | 0.00 | 46 | 1016.4 |
| 20260502231322 | 9 | 171 | 0.0 | 0.0 | 0.00 | 0.00 | 0.00 | 46 | 1016.4 |
| 20260502230820 | 9 | 204 | 1.6 | 1.6 | 0.00 | 0.00 | 0.00 | 47 | 1016.4 |
| 20260502230318 | 9 | 292 | 6.4 | 6.4 | 0.00 | 0.00 | 0.00 | 46 | 1016.4 |
| 20260502225814 | 10 | 215 | 1.6 | 3.2 | 0.00 | 0.00 | 0.00 | 46 | 1016.4 |
| 20260502225311 | 10 | 245 | 3.2 | 3.2 | 0.00 | 0.00 | 0.00 | 46 | 1016.4 |
| 20260502224808 | 10 | 154 | 0.0 | 0.0 | 0.00 | 0.00 | 0.00 | 44 | 1016.4 |
| 20260502224304 | 10 | 192 | 3.2 | 3.2 | 0.00 | 0.00 | 0.00 | 44 | 1016.4 |
| 20260502223802 | 10 | 152 | 0.0 | 0.0 | 0.00 | 0.00 | 0.00 | 45 | 1016.4 |
| 20260502223300 | 10 | 161 | 3.2 | 4.8 | 0.00 | 0.00 | 0.00 | 44 | 1016.4 |
| 20260502222757 | 10 | 287 | 3.2 | 4.8 | 0.00 | 0.00 | 0.00 | 45 | 1016.4 |
| 20260502222254 | 10 | 188 | 3.2 | 3.2 | 0.00 | 0.00 | 0.00 | 45 | 1016.4 |
| 20260502221750 | 10 | 195 | 1.6 | 1.6 | 0.00 | 0.00 | 0.00 | 44 | 1016.4 |
| 20260502221246 | 10 | 230 | 3.2 | 3.2 | 0.00 | 0.00 | 0.00 | 44 | 1016.4 |
| 20260502220743 | 10 | 186 | 1.6 | 3.2 | 0.00 | 0.00 | 0.00 | 43 | 1016.1 |
| 20260502220239 | 10 | 281 | 3.2 | 4.8 | 0.00 | 0.00 | 0.00 | 44 | 1016.4 |
| 20260502215736 | 10 | 249 | 3.2 | 4.8 | 0.00 | 0.00 | 0.00 | 45 | 1016.4 |
| 20260502215233 | 9 | 304 | 4.8 | 4.8 | 0.00 | 0.00 | 0.00 | 45 | 1016.4 |
| 20260502214730 | 9 | 181 | 0.0 | 1.6 | 0.00 | 0.00 | 0.00 | 45 | 1016.4 |
| 20260502214227 | 9 | 252 | 3.2 | 3.2 | 0.00 | 0.00 | 0.00 | 46 | 1016.8 |
| 20260502213724 | 9 | 264 | 3.2 | 3.2 | 0.00 | 0.00 | 0.00 | 44 | 1016.4 |
| 20260502213222 | 10 | 292 | 4.8 | 4.8 | 0.00 | 0.00 | 0.00 | 45 | 1016.8 |
| 20260502212720 | 10 | 282 | 4.8 | 4.8 | 0.00 | 0.00 | 0.00 | 46 | 1016.8 |
| 20260502212218 | 9 | 200 | 1.6 | 1.6 | 0.00 | 0.00 | 0.00 | 44 | 1016.8 |
| 20260502211714 | 10 | 287 | 4.8 | 6.4 | 0.00 | 0.00 | 0.00 | 45 | 1016.4 |
| 20260502211211 | 10 | 185 | 1.6 | 3.2 | 0.00 | 0.00 | 0.00 | 45 | 1016.4 |
| 20260502210708 | 10 | 274 | 8.0 | 9.7 | 0.00 | 0.00 | 0.00 | 45 | 1016.8 |
| 20260502210205 | 9 | 291 | 4.8 | 4.8 | 0.00 | 0.00 | 0.00 | 43 | 1016.4 |
| 20260502205702 | 10 | 293 | 6.4 | 11.3 | 0.00 | 0.00 | 0.00 | 44 | 1016.8 |
| 20260502205158 | 10 | 135 | 0.0 | 0.0 | 0.00 | 0.00 | 0.00 | 43 | 1016.8 |
| 20260502204655 | 10 | 225 | 6.4 | 9.7 | 0.00 | 0.00 | 0.00 | 43 | 1016.8 |
| 20260502204153 | 10 | 261 | 1.6 | 3.2 | 0.00 | 0.00 | 0.00 | 45 | 1016.8 |
| 20260502203650 | 9 | 150 | 0.0 | 1.6 | 0.00 | 0.00 | 0.00 | 45 | 1016.8 |
| 20260502203149 | 9 | 140 | 1.6 | 1.6 | 0.00 | 0.00 | 0.00 | 45 | 1016.8 |
| 20260502202642 | 9 | 94 | 3.2 | 3.2 | 0.00 | 0.00 | 0.00 | 44 | 1016.8 |
| 20260502202141 | 9 | 293 | 3.2 | 4.8 | 0.00 | 0.00 | 0.00 | 44 | 1016.8 |
| 20260502201637 | 8 | 314 | 1.6 | 3.2 | 0.00 | 0.00 | 0.00 | 45 | 1017.1 |
| 20260502201134 | 9 | 348 | 4.8 | 6.4 | 0.00 | 0.00 | 0.00 | 44 | 1016.8 |
| 20260502200630 | 9 | 174 | 0.0 | 1.6 | 0.00 | 0.00 | 0.00 | 44 | 1017.1 |
| 20260502200127 | 9 | 209 | 1.6 | 3.2 | 0.00 | 0.00 | 0.00 | 45 | 1017.1 |
| 20260502195626 | 9 | 194 | 1.6 | 1.6 | 0.00 | 0.00 | 0.00 | 43 | 1017.1 |
| 20260502195121 | 9 | 147 | 0.0 | 0.0 | 0.00 | 0.00 | 0.00 | 43 | 1017.1 |
| 20260502194618 | 9 | 196 | 1.6 | 3.2 | 0.00 | 0.00 | 0.00 | 43 | 1017.4 |